Location: Fort Wayne
(41.1310°N, 85.1290°W)
Time: 16:36:02
(UTC-05:00)

Meteor 2-9 Rocket - Visible Passes

Search period start: 12 December 2017 00:00
Search period end: 22 December 2017 00:00
Orbit: 792 x 895 km, 81.3° (Epoch: 11 December)

Date Brightness Start Highest point End Pass type
(mag) Time Alt. Az. Time Alt. Az. Time Alt. Az.
12 Dec 4.4 18:21:39 10° N 18:26:57 43° ENE 18:32:04 10° SSE visible
12 Dec 6.4 20:05:08 10° NW 20:09:21 23° W 20:13:29 10° SW visible
13 Dec 4.6 18:07:36 10° N 18:12:46 38° ENE 18:17:45 10° SE visible
13 Dec 6.2 19:50:49 10° NW 19:55:17 26° W 19:59:40 10° SW visible
14 Dec 5.5 07:14:50 10° SSE 07:20:25 48° E 07:25:59 10° NNE visible
14 Dec 4.7 17:53:35 10° N 17:58:35 33° ENE 18:03:25 10° SE visible
14 Dec 6.0 19:36:31 10° NNW 19:41:13 29° W 19:45:47 10° SSW visible
15 Dec 5.7 07:00:52 10° SSE 07:06:20 43° E 07:11:46 10° NNE visible
15 Dec 4.9 17:39:35 10° N 17:44:23 30° ENE 17:49:03 10° SE visible
15 Dec 5.8 19:22:15 10° NNW 19:27:08 33° W 19:31:53 10° SSW visible
16 Dec 5.9 06:46:55 10° SSE 06:52:15 38° E 06:57:32 10° NNE visible
16 Dec 5.6 19:08:01 10° NNW 19:13:03 38° W 19:17:56 10° SSW visible
17 Dec 6.1 06:33:01 10° SSE 06:38:11 33° E 06:43:17 10° NNE visible
17 Dec 5.3 18:53:47 10° NNW 18:58:56 43° W 19:03:58 10° SSW visible
18 Dec 6.3 06:19:09 10° SSE 06:24:06 29° E 06:29:00 10° NNE visible
18 Dec 5.1 18:39:35 10° NNW 18:44:50 49° W 18:49:58 10° SSW visible
19 Dec 6.5 06:05:20 10° SE 06:10:02 26° E 06:14:43 10° NE visible
19 Dec 4.8 18:25:24 10° NNW 18:30:44 56° W 18:35:56 10° S visible
20 Dec 6.6 05:51:33 10° SE 05:55:59 23° E 06:00:22 10° NE visible
20 Dec 4.6 18:11:13 10° NNW 18:16:37 65° W 18:21:52 10° S visible
21 Dec 6.8 05:37:49 10° SE 05:41:56 20° E 05:46:00 10° NE visible
21 Dec 4.4 07:18:32 10° SSW 07:24:13 54° WNW 07:29:51 10° N visible
21 Dec 4.4 17:57:03 10° NNW 18:02:29 74° W 18:07:47 10° S visible
